St. Johns, AZ

5:23 AM MST on October 17, 2017 (GMT -0700)
Saint Johns Industrial

Weather History for KSJN - January, 2013

Change the Weather History Date:

Wednesday, January 9, 2013

  Actual Average (KLSB) Record (KLSB)
Temperature  
Mean Temperature 34 °F -  
Max Temperature 46 °F 56 °F 60 °F (2013)
Min Temperature 21 °F 23 °F 21 °F (2013)
Degree Days  
Heating Degree Days 31    
Moisture  
Dew Point 15 °F    
Average Humidity 55    
Maximum Humidity 81    
Minimum Humidity 23    
Precipitation  
Precipitation 0.00 in - - ()
Sea Level Pressure  
Sea Level Pressure 30.26 in    
Wind  
Wind Speed 4 mph (South)    
Max Wind Speed 15 mph    
Max Gust Speed -    
Visibility 10 miles    
Events      
Averages and records for this station are not official NWS values.
T = Trace of Precipitation, MM = Missing Value Source: NWS Daily Summary

Daily Weather History Graph

Daily Weather History Graph

Search for Another Location

Airport or City:

Trip Planner

Search our weather history database for the weather conditions in past years. The results will help you decide how hot, cold, wet, or windy it might be!

Date:

Astronomy

Jan. 09, 2013 Rise Set
Actual Time 7:24 AM MST 5:25 PM MST
Civil Twilight 6:57 AM MST 5:52 PM MST
Nautical Twilight 6:26 AM MST 6:23 PM MST
Astronomical Twilight 5:55 AM MST 6:54 PM MST
Moon 5:07 AM MST (1/9) 3:30 PM MST (1/9)
Length of Visible Light 10h 55m
Length of Day
10h 00m
Waning Crescent, 6% of the Moon is Illuminated
Jan 9
Waning Crescent
Jan 11
New
Jan 18
First Quarter
Jan 26
Full
Feb 3
Last Quarter

Hourly Weather History & Observations

Time (MST) Temp. Windchill Dew Point Humidity Pressure Visibility Wind Dir Wind Speed Gust Speed Precip Events Conditions
12:54 AM 21.9 °F 17.2 °F 12.0 °F 66% 30.28 in 10.0 mi SSE 3.5 mph - N/A   Clear
1:54 AM 18.0 °F - 10.9 °F 74% 30.29 in 8.0 mi Calm Calm - N/A   Clear
2:54 AM 16.0 °F 10.4 °F 10.9 °F 81% 30.32 in 8.0 mi SW 3.5 mph - N/A   Clear
3:54 AM 16.0 °F 10.4 °F 10.9 °F 81% 30.31 in 10.0 mi SSW 3.5 mph - N/A   Clear
4:54 AM 17.1 °F 10.0 °F 10.9 °F 77% 30.32 in 10.0 mi West 4.6 mph - N/A   Clear
5:54 AM 15.1 °F - 10.0 °F 80% 30.39 in 10.0 mi Calm Calm - N/A   Clear
6:54 AM 15.1 °F 9.4 °F 10.0 °F 80% 30.41 in 10.0 mi SSE 3.5 mph - N/A   Clear
7:54 AM 15.8 °F 6.1 °F 10.4 °F 79% 30.36 in 10.0 mi West 6.9 mph - N/A   Clear
8:54 AM 21.9 °F 17.2 °F 16.0 °F 78% 30.44 in 10.0 mi West 3.5 mph - N/A   Clear
9:54 AM 28.0 °F - 17.1 °F 63% 30.43 in 10.0 mi Calm Calm - N/A   Clear
10:54 AM 33.1 °F - 18.0 °F 54% 30.38 in 10.0 mi Calm Calm - N/A   Clear
11:54 AM 42.1 °F 40.2 °F 19.0 °F 40% 30.31 in 10.0 mi WNW 3.5 mph - N/A   Clear
12:54 PM 48.9 °F - 19.9 °F 32% 30.22 in 10.0 mi ENE 4.6 mph - N/A   Clear
1:54 PM 54.0 °F - 17.1 °F 23% 30.18 in 10.0 mi East 15.0 mph - N/A   Clear
2:54 PM 54.0 °F - 17.1 °F 23% 30.19 in 10.0 mi ENE 13.8 mph - N/A   Clear
3:54 PM 54.0 °F - 17.1 °F 23% 30.17 in 10.0 mi ENE 11.5 mph - N/A   Clear
4:54 PM 50.0 °F - 16.0 °F 26% 30.17 in 10.0 mi ENE 5.8 mph - N/A   Clear
5:54 PM 43.0 °F 40.3 °F 15.1 °F 32% 30.19 in 10.0 mi ESE 4.6 mph - N/A   Clear
6:54 PM 33.1 °F - 15.1 °F 48% 30.23 in 5.0 mi Calm Calm - N/A   Haze
7:54 PM 28.0 °F 24.2 °F 14.0 °F 56% 30.25 in 4.0 mi SSW 3.5 mph - N/A   Haze
8:54 PM 32.0 °F 26.4 °F 17.1 °F 54% 30.20 in 10.0 mi SSE 5.8 mph - N/A   Clear
9:54 PM 28.0 °F 22.8 °F 17.1 °F 63% 30.19 in 10.0 mi South 4.6 mph - N/A   Clear
10:54 PM 27.0 °F 23.0 °F 15.1 °F 61% 30.14 in 10.0 mi SSW 3.5 mph - N/A   Clear
11:54 PM 21.9 °F - 12.9 °F 68% 30.10 in 10.0 mi Calm Calm - N/A   Clear